Location: Washington
(38.8950°N, 77.0370°W)
Time: 13:11:38
(UTC-04:00)

Tiangong 1 - Visible Passes

Search period start: 03 September 2015 00:00
Search period end: 13 September 2015 00:00
Orbit: 366 x 385 km, 42.8° (Epoch: 02 September)

Date Brightness Start Highest point End Pass type
(mag) Time Alt. Az. Time Alt. Az. Time Alt. Az.
03 Sep 1.5 21:20:31 10° WNW 21:23:13 59° W 21:23:13 59° W visible
04 Sep 1.2 20:18:04 10° WNW 20:21:12 68° NNE 20:23:35 16° E visible
04 Sep 4.0 21:54:58 10° W 21:55:37 14° W 21:55:37 14° W visible
05 Sep 1.7 20:52:11 10° WNW 20:55:13 45° SSW 20:56:00 36° SSE visible
06 Sep 3.6 21:27:04 10° WSW 21:28:28 15° SW 21:28:28 15° SW visible
07 Sep 2.6 20:23:52 10° W 20:26:38 28° SSW 20:28:57 13° SSE visible
09 Sep 3.5 19:55:38 10° W 19:57:54 18° SW 20:00:05 10° S visible
